Location: Arborea
(39.7744°N, 8.5819°E)
Time: 23:37:40
(UTC+00:00)

Cosmos 2322 - Pass Details

Date: 06 June 2022
Orbit: 840 x 855 km, 71.0° (Epoch: 01 July)

Event Time Altitude Azimuth Distance (km) Brightness Sun altitude
Rises 19:50:21 0° 179° (S) 3,404 6.4 -10.0°
Reaches altitude 10° 19:52:57 10° 171° (S) 2,474 5.7 -10.4°
Maximum altitude 19:58:08 38° 105° (ESE) 1,287 4.2 -11.2°
Drops below altitude 10° 20:03:22 10° 39° (NE) 2,492 6.2 -11.9°
Sets 20:05:58 0° 32° (NNE) 3,432 7.0 -12.3°
